Simultaneous Nadir Overpasses (SNOs) Predictions

Prediction of SNOs between NPP and TERRA Satellite Orbit:

Table of predicted SNOs for the next 14.0 days since TLE Epoch: 3/24/2012
Index Date (NPP) Time (NPP) Lat,Lon (NPP) SZA (NPP ) Date (TERRA) Time (TERRA) Lat,Lon (TERRA) SZA (TERRA ) Distance(km) Time Diff (sec)
1 03/25/2012 19:12:24 68.34,-109.68 66.06 03/25/2012 19:13:04 68.36,-109.62 66.07 3.43 40
2 03/25/2012 20:03:05 -68.20, 57.82 114.10 03/25/2012 20:02:35 -68.19, 57.81 114.11 1.35 30
3 03/28/2012 10:38:46 -69.06,-162.18 114.24 03/28/2012 10:39:55 -68.94,-160.66 114.40 62.09 69
4 03/28/2012 11:29:18 68.29, 6.15 64.96 03/28/2012 11:29:32 68.28, 6.17 64.94 1.92 14
5 03/28/2012 12:19:59 -68.16, 173.64 115.20 03/28/2012 12:19:02 -68.16, 173.67 115.19 1.54 57
6 03/31/2012 02:55:27 -68.38, -45.50 115.99 03/31/2012 02:56:31 -68.35, -45.50 116.02 3.03 64
7 03/31/2012 03:46:11 68.25, 121.97 63.87 03/31/2012 03:45:58 68.24, 122.01 63.85 2.46 13
8 03/31/2012 04:36:45 -67.74, -70.07 116.67 03/31/2012 04:35:34 -67.79, -70.87 116.60 34.33 71
9 04/02/2012 19:12:20 -68.28, 70.39 117.12 04/02/2012 19:12:58 -68.30, 70.33 117.11 2.69 38
10 04/02/2012 20:03:04 68.16,-122.15 62.74 04/02/2012 20:02:25 68.18,-122.16 62.77 2.46 39
11 04/05/2012 10:38:39 68.71, 18.28 62.31 04/05/2012 10:39:50 68.61, 18.98 62.20 30.04 71
12 04/05/2012 11:29:14 -68.25,-173.80 118.18 04/05/2012 11:29:25 -68.23,-173.85 118.20 2.88 11
13 04/05/2012 12:19:58 68.12, -6.33
